Regional Weather Roundup
Issued by NWS Binghamton, NY

Home | Current Version | Previous Version | Text Only | Print | Product List | Glossary On
Versions: 1 2 3 4 5 6 7 8 9 10 11 12 13 14 15 16 17 18 19 20 21 22 23 24 25 26 27 28
000
ASUS41 KBGM 250810
RWRBGM

REGIONAL WEATHER ROUNDUP
NATIONAL WEATHER SERVICE BINGHAMTON NY
300 AM EST SAT FEB 25 2017

Note: "fair" indicates few or no clouds below 12,000 feet with no
significant weather and/or obstructions to visibility.

* = Station(s) that does not report precipitation, such as rain,
snow, etc, also no thunder or fog.

NYZ009-015>018-022>025-036-037-044>046-055>057-062-250900
...Central New York...

CITY           SKY/WX    TMP DP  RH WIND       PRES   REMARKS
Binghamton     CLOUDY    57  52  83 S9G20     29.66F
Cortland       FAIR      59  52  77 S9        29.64F
Dansville      PTCLDY    62  50  64 SE9G18    29.54F
Elmira         PTCLDY    63  51  65 S6        29.61F
Seneca Falls   SUNNY     57  52  82 S14       29.57F
Ithaca         CLOUDY    59  52  77 S15       29.63F
Hamilton       PTCLDY    57  50  77 S7G16     29.66F
Monticello     CLOUDY    55  54  94 SE7       29.78F
Norwich        CLOUDY    57  50  77 S7        29.68S
Oneonta        PTCLDY    57  48  72 S8G16     29.70F
Penn Yan       CLOUDY    58  48  69 SW8       29.58F
Rome           MOCLDY    60  52  74 SE15G21   29.65F
Sidney         CLOUDY    57  55  94 S6        29.69F
Syracuse       CLOUDY    61  51  70 S18G25    29.56F
$$

PAZ038>040-043-044-047-048-072-250900
...Northeast Pennsylvania...

CITY           SKY/WX    TMP DP  RH WIND       PRES   REMARKS
Hazleton       CLOUDY    59  55  88 S7        29.78S
Scranton       CLOUDY    62  57  83 S16G25    29.70F
$$
&&
KEY
WCI = Wind Chill Index
VSB = Visibility
HX  = Heat Index
$$




USA.gov is the U.S. government's official web portal to all federal, state and local government web resources and services.